contact:dominique.lefevre@mio.osupytheas.fr, maurice.libes@osupytheas.fr, didier.mallarino@osupytheas.fr
Project:EMSO http://www.emso-fr.org/EMSO-France
Depth: 2436.0 m
Title:EMSO Ligure Ouest : Data MII capteur MICROCAT
DateTime_Computer,Latitude,Longitude,Temperature,Conductivity,Pressure,DateTime_Instrument
DateTime_Computer,Latitude,Longitude,degC,S m-1,dbar,DateTime_Instrument
2020-08-18T00:00:35Z,42.805,6.029,13.2975,4.59974,2470.077,2020-8-18T02:01:24Z
2020-08-18T00:03:38Z,42.805,6.029,13.2972,4.59973,2470.053,2020-8-18T02:04:28Z
2020-08-18T00:06:41Z,42.805,6.029,13.2968,4.59974,2470.063,2020-8-18T02:07:31Z
2020-08-18T00:09:45Z,42.805,6.029,13.2974,4.59972,2470.04,2020-8-18T02:10:34Z
2020-08-18T00:12:48Z,42.805,6.029,13.2972,4.59973,2470.053,2020-8-18T02:13:37Z
2020-08-18T00:15:51Z,42.805,6.029,13.2971,4.59973,2470.04,2020-8-18T02:16:40Z
2020-08-18T00:18:54Z,42.805,6.029,13.2969,4.59973,2469.993,2020-8-18T02:19:44Z
2020-08-18T00:21:58Z,42.805,6.029,13.2976,4.59974,2470.063,2020-8-18T02:22:47Z
2020-08-18T00:25:01Z,42.805,6.029,13.2971,4.59973,2470.04,2020-8-18T02:25:50Z
2020-08-18T00:28:04Z,42.805,6.029,13.2975,4.59975,2470.017,2020-8-18T02:28:53Z
2020-08-18T00:31:07Z,42.805,6.029,13.2971,4.59973,2470.053,2020-8-18T02:31:57Z
2020-08-18T00:34:11Z,42.805,6.029,13.2971,4.59973,2470.053,2020-8-18T02:35:00Z
2020-08-18T00:37:14Z,42.805,6.029,13.2970,4.59973,2470.063,2020-8-18T02:38:03Z
2020-08-18T00:40:17Z,42.805,6.029,13.2974,4.59975,2470.017,2020-8-18T02:41:06Z
2020-08-18T00:43:20Z,42.805,6.029,13.2973,4.59975,2470.063,2020-8-18T02:44:10Z
2020-08-18T00:46:24Z,42.805,6.029,13.2974,4.59973,2470.053,2020-8-18T02:47:13Z
2020-08-18T00:49:27Z,42.805,6.029,13.2969,4.59975,2470.053,2020-8-18T02:50:16Z
2020-08-18T00:52:30Z,42.805,6.029,13.2973,4.59974,2470.077,2020-8-18T02:53:19Z
2020-08-18T00:55:33Z,42.805,6.029,13.2971,4.59975,2470.077,2020-8-18T02:56:23Z
2020-08-18T00:58:36Z,42.805,6.029,13.2974,4.59975,2470.017,2020-8-18T02:59:26Z
2020-08-18T01:01:40Z,42.805,6.029,13.2974,4.59975,2470.04,2020-8-18T03:02:29Z
2020-08-18T01:04:43Z,42.805,6.029,13.2973,4.59973,2470.04,2020-8-18T03:05:32Z
2020-08-18T01:07:46Z,42.805,6.029,13.2974,4.59974,2470.04,2020-8-18T03:08:35Z
2020-08-18T01:10:49Z,42.805,6.029,13.2970,4.59974,2470.04,2020-8-18T03:11:39Z
2020-08-18T01:13:53Z,42.805,6.029,13.2971,4.59975,2470.04,2020-8-18T03:14:42Z
2020-08-18T01:16:56Z,42.805,6.029,13.2971,4.59974,2470.053,2020-8-18T03:17:45Z
2020-08-18T01:19:59Z,42.805,6.029,13.2971,4.59973,2470.017,2020-8-18T03:20:48Z
2020-08-18T01:23:02Z,42.805,6.029,13.2971,4.59974,2470.053,2020-8-18T03:23:52Z
2020-08-18T01:26:05Z,42.805,6.029,13.2968,4.59974,2470.053,2020-8-18T03:26:55Z
2020-08-18T01:29:09Z,42.805,6.029,13.2971,4.59974,2470.04,2020-8-18T03:29:58Z
2020-08-18T01:32:12Z,42.805,6.029,13.2974,4.59975,2470.03,2020-8-18T03:33:01Z
2020-08-18T01:35:15Z,42.805,6.029,13.2973,4.59973,2470.04,2020-8-18T03:36:05Z
2020-08-18T01:38:19Z,42.805,6.029,13.2974,4.59973,2470.017,2020-8-18T03:39:08Z
2020-08-18T01:41:22Z,42.805,6.029,13.2971,4.59975,2470.053,2020-8-18T03:42:11Z
2020-08-18T01:44:25Z,42.805,6.029,13.2973,4.59973,2470.017,2020-8-18T03:45:14Z
2020-08-18T01:47:28Z,42.805,6.029,13.2974,4.59975,2470.017,2020-8-18T03:48:18Z
2020-08-18T01:50:31Z,42.805,6.029,13.2973,4.59974,2470.053,2020-8-18T03:51:21Z
2020-08-18T01:53:35Z,42.805,6.029,13.2977,4.59973,2470.04,2020-8-18T03:54:24Z
2020-08-18T01:56:38Z,42.805,6.029,13.2974,4.59973,2470.053,2020-8-18T03:57:27Z
2020-08-18T01:59:41Z,42.805,6.029,13.2971,4.59974,2470.03,2020-8-18T04:00:31Z
2020-08-18T02:02:45Z,42.805,6.029,13.2972,4.59975,2470.007,2020-8-18T04:03:34Z
2020-08-18T02:05:48Z,42.805,6.029,13.2971,4.59973,2470.04,2020-8-18T04:06:37Z
2020-08-18T02:08:51Z,42.805,6.029,13.2972,4.59973,2470.063,2020-8-18T04:09:40Z
2020-08-18T02:11:54Z,42.805,6.029,13.2970,4.59973,2470.04,2020-8-18T04:12:44Z
2020-08-18T02:14:57Z,42.805,6.029,13.2971,4.59973,2470.017,2020-8-18T04:15:47Z
2020-08-18T02:18:01Z,42.805,6.029,13.2974,4.59974,2470.053,2020-8-18T04:18:50Z
2020-08-18T02:21:04Z,42.805,6.029,13.2974,4.59974,2470.04,2020-8-18T04:21:54Z
2020-08-18T02:24:07Z,42.805,6.029,13.2972,4.59973,2470.04,2020-8-18T04:24:57Z
2020-08-18T02:27:11Z,42.805,6.029,13.2970,4.59973,2470.017,2020-8-18T04:28:00Z
2020-08-18T02:30:14Z,42.805,6.029,13.2974,4.59974,2470.04,2020-8-18T04:31:03Z
2020-08-18T02:33:17Z,42.805,6.029,13.2972,4.59973,2470.063,2020-8-18T04:34:07Z
2020-08-18T02:36:20Z,42.805,6.029,13.2977,4.59975,2470.017,2020-8-18T04:37:10Z
2020-08-18T02:39:24Z,42.805,6.029,13.2970,4.59973,2470.053,2020-8-18T04:40:13Z
2020-08-18T02:42:27Z,42.805,6.029,13.2971,4.59973,2470.04,2020-8-18T04:43:17Z
2020-08-18T02:45:31Z,42.805,6.029,13.2974,4.59973,2470.063,2020-8-18T04:46:20Z
2020-08-18T02:48:34Z,42.805,6.029,13.2971,4.59974,2470.063,2020-8-18T04:49:23Z
2020-08-18T02:51:37Z,42.805,6.029,13.2972,4.59973,2470.063,2020-8-18T04:52:27Z
2020-08-18T02:54:40Z,42.805,6.029,13.2978,4.59975,2470.053,2020-8-18T04:55:30Z
2020-08-18T02:57:43Z,42.805,6.029,13.2972,4.59973,2470.04,2020-8-18T04:58:33Z
2020-08-18T03:00:47Z,42.805,6.029,13.2971,4.59974,2470.077,2020-8-18T05:01:36Z
2020-08-18T03:03:50Z,42.805,6.029,13.2971,4.59974,2470.063,2020-8-18T05:04:39Z
2020-08-18T03:06:53Z,42.805,6.029,13.2969,4.59974,2470.063,2020-8-18T05:07:43Z
2020-08-18T03:09:56Z,42.805,6.029,13.2974,4.59973,2470.063,2020-8-18T05:10:46Z
2020-08-18T03:13:00Z,42.805,6.029,13.2974,4.59974,2470.063,2020-8-18T05:13:49Z
2020-08-18T03:16:03Z,42.805,6.029,13.2975,4.59973,2470.1,2020-8-18T05:16:52Z
2020-08-18T03:19:06Z,42.805,6.029,13.2971,4.59973,2470.077,2020-8-18T05:19:55Z
2020-08-18T03:22:09Z,42.805,6.029,13.2969,4.59973,2470.063,2020-8-18T05:22:59Z
2020-08-18T03:25:13Z,42.805,6.029,13.2974,4.59973,2470.063,2020-8-18T05:26:02Z
2020-08-18T03:28:16Z,42.805,6.029,13.2972,4.59976,2470.077,2020-8-18T05:29:05Z
2020-08-18T03:31:19Z,42.805,6.029,13.2973,4.59975,2470.053,2020-8-18T05:32:09Z
2020-08-18T03:34:22Z,42.805,6.029,13.2976,4.59974,2470.04,2020-8-18T05:35:12Z
2020-08-18T03:37:26Z,42.805,6.029,13.2972,4.59973,2470.077,2020-8-18T05:38:15Z
2020-08-18T03:40:29Z,42.805,6.029,13.2974,4.59974,2470.1,2020-8-18T05:41:18Z
2020-08-18T03:43:32Z,42.805,6.029,13.2973,4.59976,2470.1,2020-8-18T05:44:22Z
2020-08-18T03:46:35Z,42.805,6.029,13.2972,4.59975,2470.133,2020-8-18T05:47:25Z
2020-08-18T03:49:39Z,42.805,6.029,13.2974,4.59974,2470.077,2020-8-18T05:50:28Z
2020-08-18T03:52:42Z,42.805,6.029,13.2971,4.59976,2470.087,2020-8-18T05:53:32Z
2020-08-18T03:55:45Z,42.805,6.029,13.2973,4.59974,2470.087,2020-8-18T05:56:35Z
2020-08-18T03:58:49Z,42.805,6.029,13.2971,4.59978,2470.11,2020-8-18T05:59:38Z
2020-08-18T04:01:52Z,42.805,6.029,13.2974,4.59974,2470.087,2020-8-18T06:02:41Z
2020-08-18T04:04:55Z,42.805,6.029,13.2970,4.59973,2470.1,2020-8-18T06:05:45Z
2020-08-18T04:07:58Z,42.805,6.029,13.2974,4.59973,2470.087,2020-8-18T06:08:48Z
2020-08-18T04:11:02Z,42.805,6.029,13.2971,4.59974,2470.087,2020-8-18T06:11:51Z
2020-08-18T04:14:05Z,42.805,6.029,13.2972,4.59974,2470.077,2020-8-18T06:14:55Z
2020-08-18T04:17:08Z,42.805,6.029,13.2973,4.59974,2470.087,2020-8-18T06:17:58Z
2020-08-18T04:20:12Z,42.805,6.029,13.2973,4.59974,2470.11,2020-8-18T06:21:01Z
2020-08-18T04:23:15Z,42.805,6.029,13.2973,4.59973,2470.11,2020-8-18T06:24:04Z
2020-08-18T04:26:18Z,42.805,6.029,13.2978,4.59973,2470.124,2020-8-18T06:27:08Z
2020-08-18T04:29:21Z,42.805,6.029,13.2971,4.59974,2470.124,2020-8-18T06:30:11Z
2020-08-18T04:32:25Z,42.805,6.029,13.2975,4.59976,2470.133,2020-8-18T06:33:14Z
2020-08-18T04:35:28Z,42.805,6.029,13.2971,4.59974,2470.11,2020-8-18T06:36:17Z
2020-08-18T04:38:31Z,42.805,6.029,13.2972,4.59974,2470.147,2020-8-18T06:39:20Z
2020-08-18T04:41:34Z,42.805,6.029,13.2972,4.59976,2470.11,2020-8-18T06:42:24Z
2020-08-18T04:44:37Z,42.805,6.029,13.2977,4.59976,2470.11,2020-8-18T06:45:27Z
2020-08-18T04:47:41Z,42.805,6.029,13.2971,4.59975,2470.156,2020-8-18T06:48:30Z
2020-08-18T04:50:44Z,42.805,6.029,13.2974,4.59973,2470.11,2020-8-18T06:51:34Z
2020-08-18T04:53:47Z,42.805,6.029,13.2976,4.59974,2470.156,2020-8-18T06:54:37Z
2020-08-18T04:56:51Z,42.805,6.029,13.2971,4.59974,2470.087,2020-8-18T06:57:40Z
2020-08-18T04:59:54Z,42.805,6.029,13.2975,4.59974,2470.171,2020-8-18T07:00:43Z
2020-08-18T05:02:57Z,42.805,6.029,13.2976,4.59975,2470.147,2020-8-18T07:03:46Z
2020-08-18T05:06:01Z,42.805,6.029,13.2969,4.59975,2470.133,2020-8-18T07:06:50Z
2020-08-18T05:09:04Z,42.805,6.029,13.2972,4.59976,2470.147,2020-8-18T07:09:53Z
2020-08-18T05:12:07Z,42.805,6.029,13.2972,4.59974,2470.133,2020-8-18T07:12:56Z
2020-08-18T05:15:10Z,42.805,6.029,13.2972,4.59974,2470.1,2020-8-18T07:16:00Z
2020-08-18T05:18:14Z,42.805,6.029,13.2975,4.59976,2470.171,2020-8-18T07:19:03Z
2020-08-18T05:21:17Z,42.805,6.029,13.2974,4.59974,2470.18,2020-8-18T07:22:06Z
2020-08-18T05:24:20Z,42.805,6.029,13.2973,4.59975,2470.171,2020-8-18T07:25:09Z
2020-08-18T05:27:23Z,42.805,6.029,13.2971,4.59976,2470.124,2020-8-18T07:28:13Z
2020-08-18T05:30:26Z,42.805,6.029,13.2974,4.59976,2470.156,2020-8-18T07:31:16Z
2020-08-18T05:33:30Z,42.805,6.029,13.2975,4.59976,2470.133,2020-8-18T07:34:19Z
2020-08-18T05:36:33Z,42.805,6.029,13.2974,4.59974,2470.124,2020-8-18T07:37:22Z
2020-08-18T05:39:36Z,42.805,6.029,13.2972,4.59975,2470.147,2020-8-18T07:40:25Z
2020-08-18T05:42:39Z,42.805,6.029,13.2974,4.59975,2470.147,2020-8-18T07:43:29Z
2020-08-18T05:45:42Z,42.805,6.029,13.2973,4.59974,2470.194,2020-8-18T07:46:32Z
2020-08-18T05:48:46Z,42.805,6.029,13.2973,4.59974,2470.171,2020-8-18T07:49:35Z
2020-08-18T05:51:49Z,42.805,6.029,13.2971,4.59976,2470.156,2020-8-18T07:52:38Z
2020-08-18T05:54:52Z,42.805,6.029,13.2975,4.59975,2470.133,2020-8-18T07:55:41Z
2020-08-18T05:57:55Z,42.805,6.029,13.2972,4.59974,2470.156,2020-8-18T07:58:45Z
2020-08-18T06:00:59Z,42.805,6.029,13.2974,4.59976,2470.18,2020-8-18T08:01:48Z
2020-08-18T06:04:02Z,42.805,6.029,13.2973,4.59975,2470.171,2020-8-18T08:04:51Z
2020-08-18T06:07:05Z,42.805,6.029,13.2972,4.59975,2470.133,2020-8-18T08:07:54Z
2020-08-18T06:10:08Z,42.805,6.029,13.2974,4.59975,2470.156,2020-8-18T08:10:58Z
2020-08-18T06:13:11Z,42.805,6.029,13.2974,4.59974,2470.171,2020-8-18T08:14:01Z
2020-08-18T06:16:15Z,42.805,6.029,13.2972,4.59977,2470.156,2020-8-18T08:17:04Z
2020-08-18T06:19:18Z,42.805,6.029,13.2972,4.59975,2470.171,2020-8-18T08:20:08Z
2020-08-18T06:22:21Z,42.805,6.029,13.2977,4.59976,2470.147,2020-8-18T08:23:11Z
2020-08-18T06:25:25Z,42.805,6.029,13.2976,4.59974,2470.18,2020-8-18T08:26:14Z
2020-08-18T06:28:28Z,42.805,6.029,13.2970,4.59974,2470.156,2020-8-18T08:29:17Z
2020-08-18T06:31:31Z,42.805,6.029,13.2974,4.59974,2470.171,2020-8-18T08:32:21Z
2020-08-18T06:34:34Z,42.805,6.029,13.2973,4.59974,2470.133,2020-8-18T08:35:24Z
2020-08-18T06:37:38Z,42.805,6.029,13.2976,4.59976,2470.147,2020-8-18T08:38:27Z
2020-08-18T06:40:41Z,42.805,6.029,13.2976,4.59975,2470.156,2020-8-18T08:41:30Z
2020-08-18T06:43:44Z,42.805,6.029,13.2979,4.59973,2470.171,2020-8-18T08:44:34Z
2020-08-18T06:46:48Z,42.805,6.029,13.2970,4.59974,2470.147,2020-8-18T08:47:37Z
2020-08-18T06:49:51Z,42.805,6.029,13.2972,4.59974,2470.11,2020-8-18T08:50:40Z
2020-08-18T06:52:54Z,42.805,6.029,13.2974,4.59974,2470.133,2020-8-18T08:53:43Z
2020-08-18T06:55:57Z,42.805,6.029,13.2973,4.59976,2470.156,2020-8-18T08:56:47Z
2020-08-18T06:59:01Z,42.805,6.029,13.2973,4.59974,2470.156,2020-8-18T08:59:50Z
2020-08-18T07:02:04Z,42.805,6.029,13.2971,4.59976,2470.11,2020-8-18T09:02:53Z
2020-08-18T07:05:07Z,42.805,6.029,13.2975,4.59973,2470.18,2020-8-18T09:05:56Z
2020-08-18T07:08:10Z,42.805,6.029,13.2971,4.59974,2470.156,2020-8-18T09:09:00Z
2020-08-18T07:11:14Z,42.805,6.029,13.2973,4.59974,2470.147,2020-8-18T09:12:03Z
2020-08-18T07:14:17Z,42.805,6.029,13.2974,4.59974,2470.133,2020-8-18T09:15:06Z
2020-08-18T07:17:20Z,42.805,6.029,13.2974,4.59974,2470.194,2020-8-18T09:18:10Z
2020-08-18T07:20:24Z,42.805,6.029,13.2973,4.59974,2470.156,2020-8-18T09:21:13Z
2020-08-18T07:23:27Z,42.805,6.029,13.2974,4.59976,2470.133,2020-8-18T09:24:16Z
2020-08-18T07:26:30Z,42.805,6.029,13.2971,4.59975,2470.171,2020-8-18T09:27:19Z
2020-08-18T07:29:33Z,42.805,6.029,13.2974,4.59974,2470.156,2020-8-18T09:30:23Z
2020-08-18T07:32:36Z,42.805,6.029,13.2974,4.59974,2470.171,2020-8-18T09:33:26Z
2020-08-18T07:35:40Z,42.805,6.029,13.2971,4.59975,2470.147,2020-8-18T09:36:29Z
2020-08-18T07:38:43Z,42.805,6.029,13.2970,4.59975,2470.156,2020-8-18T09:39:32Z
2020-08-18T07:41:46Z,42.805,6.029,13.2971,4.59975,2470.147,2020-8-18T09:42:36Z
2020-08-18T07:44:49Z,42.805,6.029,13.2974,4.59974,2470.133,2020-8-18T09:45:39Z
2020-08-18T07:47:53Z,42.805,6.029,13.2970,4.59973,2470.171,2020-8-18T09:48:42Z
2020-08-18T07:50:56Z,42.805,6.029,13.2973,4.59976,2470.11,2020-8-18T09:51:45Z
2020-08-18T07:53:59Z,42.805,6.029,13.2969,4.59974,2470.156,2020-8-18T09:54:48Z
2020-08-18T07:57:02Z,42.805,6.029,13.2972,4.59975,2470.133,2020-8-18T09:57:52Z
2020-08-18T08:00:06Z,42.805,6.029,13.2971,4.59974,2470.11,2020-8-18T10:00:55Z
2020-08-18T08:03:09Z,42.805,6.029,13.2971,4.59973,2470.133,2020-8-18T10:03:58Z
2020-08-18T08:06:12Z,42.805,6.029,13.2975,4.59973,2470.124,2020-8-18T10:07:02Z
2020-08-18T08:09:15Z,42.805,6.029,13.2976,4.59975,2470.11,2020-8-18T10:10:05Z
2020-08-18T08:12:18Z,42.805,6.029,13.2973,4.59976,2470.133,2020-8-18T10:13:08Z
2020-08-18T08:15:22Z,42.805,6.029,13.2971,4.59976,2470.147,2020-8-18T10:16:11Z
2020-08-18T08:18:25Z,42.805,6.029,13.2972,4.59975,2470.1,2020-8-18T10:19:14Z
2020-08-18T08:21:28Z,42.805,6.029,13.2972,4.59974,2470.087,2020-8-18T10:22:18Z
2020-08-18T08:24:32Z,42.805,6.029,13.2973,4.59976,2470.124,2020-8-18T10:25:21Z
2020-08-18T08:27:35Z,42.805,6.029,13.2973,4.59976,2470.124,2020-8-18T10:28:24Z
2020-08-18T08:30:38Z,42.805,6.029,13.2976,4.59975,2470.124,2020-8-18T10:31:28Z
2020-08-18T08:33:41Z,42.805,6.029,13.2971,4.59973,2470.133,2020-8-18T10:34:31Z
2020-08-18T08:36:45Z,42.805,6.029,13.2972,4.59973,2470.124,2020-8-18T10:37:34Z
2020-08-18T08:39:48Z,42.805,6.029,13.2974,4.59975,2470.1,2020-8-18T10:40:37Z
2020-08-18T08:42:51Z,42.805,6.029,13.2972,4.59974,2470.11,2020-8-18T10:43:40Z
2020-08-18T08:45:54Z,42.805,6.029,13.2971,4.59975,2470.124,2020-8-18T10:46:44Z
2020-08-18T08:48:58Z,42.805,6.029,13.2978,4.59974,2470.11,2020-8-18T10:49:47Z
2020-08-18T08:52:01Z,42.805,6.029,13.2971,4.59973,2470.087,2020-8-18T10:52:50Z
2020-08-18T08:55:04Z,42.805,6.029,13.2973,4.59974,2470.11,2020-8-18T10:55:53Z
2020-08-18T08:58:07Z,42.805,6.029,13.2972,4.59975,2470.087,2020-8-18T10:58:57Z
2020-08-18T09:01:10Z,42.805,6.029,13.2971,4.59978,2470.133,2020-8-18T11:02:00Z
2020-08-18T09:04:14Z,42.805,6.029,13.2973,4.59976,2470.087,2020-8-18T11:05:03Z
2020-08-18T09:07:17Z,42.805,6.029,13.2971,4.59976,2470.063,2020-8-18T11:08:06Z
2020-08-18T09:10:20Z,42.805,6.029,13.2973,4.59973,2470.1,2020-8-18T11:11:10Z
2020-08-18T09:13:24Z,42.805,6.029,13.2971,4.59973,2470.063,2020-8-18T11:14:13Z
2020-08-18T09:16:27Z,42.805,6.029,13.2974,4.59974,2470.053,2020-8-18T11:17:16Z
2020-08-18T09:19:30Z,42.805,6.029,13.2976,4.59975,2470.087,2020-8-18T11:20:19Z
2020-08-18T09:22:33Z,42.805,6.029,13.2975,4.59975,2470.063,2020-8-18T11:23:23Z
2020-08-18T09:25:36Z,42.805,6.029,13.2972,4.59974,2470.077,2020-8-18T11:26:26Z
2020-08-18T09:28:40Z,42.805,6.029,13.2973,4.59976,2470.063,2020-8-18T11:29:29Z
2020-08-18T09:31:43Z,42.805,6.029,13.2972,4.59975,2470.063,2020-8-18T11:32:32Z
2020-08-18T09:34:46Z,42.805,6.029,13.2974,4.59976,2470.1,2020-8-18T11:35:36Z
2020-08-18T09:37:50Z,42.805,6.029,13.2971,4.59974,2470.11,2020-8-18T11:38:39Z
2020-08-18T09:40:53Z,42.805,6.029,13.2972,4.59975,2470.1,2020-8-18T11:41:42Z
2020-08-18T09:43:56Z,42.805,6.029,13.2973,4.59976,2470.077,2020-8-18T11:44:46Z
2020-08-18T09:46:59Z,42.805,6.029,13.2972,4.59976,2470.077,2020-8-18T11:47:49Z
2020-08-18T09:50:03Z,42.805,6.029,13.2974,4.59975,2470.087,2020-8-18T11:50:52Z
2020-08-18T09:53:06Z,42.805,6.029,13.2968,4.59975,2470.063,2020-8-18T11:53:55Z
2020-08-18T09:56:09Z,42.805,6.029,13.2974,4.59976,2470.03,2020-8-18T11:56:58Z
2020-08-18T09:59:12Z,42.805,6.029,13.2970,4.59978,2470.053,2020-8-18T12:00:02Z
2020-08-18T10:02:16Z,42.805,6.029,13.2970,4.59977,2470.049,2020-8-18T12:03:05Z
2020-08-18T10:05:19Z,42.805,6.029,13.2973,4.59975,2470.04,2020-8-18T12:06:08Z
2020-08-18T10:08:22Z,42.805,6.029,13.2974,4.59975,2470.053,2020-8-18T12:09:12Z
2020-08-18T10:11:26Z,42.805,6.029,13.2977,4.59975,2470.04,2020-8-18T12:12:15Z
2020-08-18T10:14:29Z,42.805,6.029,13.2975,4.59975,2470.04,2020-8-18T12:15:18Z
2020-08-18T10:17:32Z,42.805,6.029,13.2974,4.59976,2470.053,2020-8-18T12:18:21Z
2020-08-18T10:20:35Z,42.805,6.029,13.2976,4.59976,2470.077,2020-8-18T12:21:25Z
2020-08-18T10:23:39Z,42.805,6.029,13.2975,4.59975,2470.077,2020-8-18T12:24:28Z
2020-08-18T10:26:42Z,42.805,6.029,13.2969,4.59975,2470.017,2020-8-18T12:27:31Z
2020-08-18T10:29:45Z,42.805,6.029,13.2970,4.59976,2470.017,2020-8-18T12:30:35Z
2020-08-18T10:32:48Z,42.805,6.029,13.2969,4.59974,2470.04,2020-8-18T12:33:38Z
2020-08-18T10:35:52Z,42.805,6.029,13.2973,4.59976,2470.053,2020-8-18T12:36:41Z
2020-08-18T10:38:55Z,42.805,6.029,13.2974,4.59974,2470.063,2020-8-18T12:39:44Z
2020-08-18T10:41:58Z,42.805,6.029,13.2976,4.59975,2470.017,2020-8-18T12:42:47Z
2020-08-18T10:45:01Z,42.805,6.029,13.2971,4.59975,2470.04,2020-8-18T12:45:51Z
2020-08-18T10:48:05Z,42.805,6.029,13.2974,4.59974,2470.03,2020-8-18T12:48:54Z
2020-08-18T10:51:08Z,42.805,6.029,13.2973,4.59975,2470.03,2020-8-18T12:51:57Z
2020-08-18T10:54:11Z,42.805,6.029,13.2971,4.59974,2470.053,2020-8-18T12:55:01Z
2020-08-18T10:57:14Z,42.805,6.029,13.2971,4.59975,2470.03,2020-8-18T12:58:04Z
2020-08-18T11:00:18Z,42.805,6.029,13.2972,4.59974,2470.007,2020-8-18T13:01:07Z
2020-08-18T11:03:21Z,42.805,6.029,13.2975,4.59974,2470.007,2020-8-18T13:04:10Z
2020-08-18T11:06:24Z,42.805,6.029,13.2972,4.59976,2470.007,2020-8-18T13:07:14Z
2020-08-18T11:09:27Z,42.805,6.029,13.2976,4.59974,2470.03,2020-8-18T13:10:17Z
2020-08-18T11:12:31Z,42.805,6.029,13.2971,4.59976,2469.993,2020-8-18T13:13:20Z
2020-08-18T11:15:34Z,42.805,6.029,13.2974,4.59975,2469.993,2020-8-18T13:16:23Z
2020-08-18T11:18:37Z,42.805,6.029,13.2975,4.59975,2470.03,2020-8-18T13:19:27Z
2020-08-18T11:21:40Z,42.805,6.029,13.2974,4.59974,2470.03,2020-8-18T13:22:30Z
2020-08-18T11:24:44Z,42.805,6.029,13.2973,4.59974,2470.007,2020-8-18T13:25:33Z
2020-08-18T11:27:47Z,42.805,6.029,13.2971,4.59976,2469.984,2020-8-18T13:28:37Z
2020-08-18T11:30:50Z,42.805,6.029,13.2971,4.59974,2469.97,2020-8-18T13:31:40Z
2020-08-18T11:33:54Z,42.805,6.029,13.2974,4.59975,2469.984,2020-8-18T13:34:43Z
2020-08-18T11:36:57Z,42.805,6.029,13.2975,4.59976,2470.03,2020-8-18T13:37:47Z
2020-08-18T11:40:01Z,42.805,6.029,13.2976,4.59976,2470.03,2020-8-18T13:40:50Z
2020-08-18T11:43:04Z,42.805,6.029,13.2976,4.59975,2470.007,2020-8-18T13:43:53Z
2020-08-18T11:46:07Z,42.805,6.029,13.2972,4.59975,2470.007,2020-8-18T13:46:57Z
2020-08-18T11:49:10Z,42.805,6.029,13.2970,4.59976,2469.97,2020-8-18T13:50:00Z
2020-08-18T11:52:14Z,42.805,6.029,13.2971,4.59976,2469.97,2020-8-18T13:53:03Z
2020-08-18T11:55:17Z,42.805,6.029,13.2973,4.59976,2469.993,2020-8-18T13:56:06Z
2020-08-18T11:58:20Z,42.805,6.029,13.2976,4.59975,2469.993,2020-8-18T13:59:10Z
2020-08-18T12:01:23Z,42.805,6.029,13.2976,4.59976,2469.947,2020-8-18T14:02:13Z
2020-08-18T12:04:27Z,42.805,6.029,13.2975,4.59978,2469.984,2020-8-18T14:05:16Z
2020-08-18T12:07:30Z,42.805,6.029,13.2973,4.59975,2469.97,2020-8-18T14:08:19Z
2020-08-18T12:10:33Z,42.805,6.029,13.2970,4.59976,2469.993,2020-8-18T14:11:23Z
2020-08-18T12:13:36Z,42.805,6.029,13.2973,4.59975,2470.017,2020-8-18T14:14:26Z
2020-08-18T12:16:40Z,42.805,6.029,13.2973,4.59975,2469.97,2020-8-18T14:17:29Z
2020-08-18T12:19:43Z,42.805,6.029,13.2972,4.59975,2470.017,2020-8-18T14:20:32Z
2020-08-18T12:22:46Z,42.805,6.029,13.2974,4.59976,2469.984,2020-8-18T14:23:35Z
2020-08-18T12:25:49Z,42.805,6.029,13.2971,4.59974,2469.947,2020-8-18T14:26:39Z
2020-08-18T12:28:52Z,42.805,6.029,13.2972,4.59976,2469.97,2020-8-18T14:29:42Z
2020-08-18T12:31:56Z,42.805,6.029,13.2974,4.59976,2469.984,2020-8-18T14:32:45Z
2020-08-18T12:34:59Z,42.805,6.029,13.2976,4.59975,2469.97,2020-8-18T14:35:48Z
2020-08-18T12:38:02Z,42.805,6.029,13.2972,4.59974,2469.96,2020-8-18T14:38:52Z
2020-08-18T12:41:06Z,42.805,6.029,13.2972,4.59977,2469.96,2020-8-18T14:41:55Z
2020-08-18T12:44:09Z,42.805,6.029,13.2976,4.59974,2469.984,2020-8-18T14:44:58Z
2020-08-18T12:47:12Z,42.805,6.029,13.2971,4.59976,2469.947,2020-8-18T14:48:02Z
2020-08-18T12:50:15Z,42.805,6.029,13.2971,4.59975,2469.97,2020-8-18T14:51:05Z
2020-08-18T12:53:19Z,42.805,6.029,13.2971,4.59976,2469.984,2020-8-18T14:54:08Z
2020-08-18T12:56:22Z,42.805,6.029,13.2972,4.59976,2469.984,2020-8-18T14:57:11Z
2020-08-18T12:59:25Z,42.805,6.029,13.2972,4.59974,2469.947,2020-8-18T15:00:15Z
2020-08-18T13:02:29Z,42.805,6.029,13.2974,4.59975,2469.993,2020-8-18T15:03:18Z
2020-08-18T13:05:32Z,42.805,6.029,13.2967,4.59976,2469.937,2020-8-18T15:06:21Z
2020-08-18T13:08:35Z,42.805,6.029,13.2974,4.59975,2469.984,2020-8-18T15:09:25Z
2020-08-18T13:11:38Z,42.805,6.029,13.2976,4.59977,2469.993,2020-8-18T15:12:28Z
2020-08-18T13:14:42Z,42.805,6.029,13.2975,4.59976,2469.96,2020-8-18T15:15:31Z
2020-08-18T13:17:45Z,42.805,6.029,13.2973,4.59976,2469.947,2020-8-18T15:18:35Z
2020-08-18T13:20:48Z,42.805,6.029,13.2976,4.59976,2469.96,2020-8-18T15:21:38Z
2020-08-18T13:23:52Z,42.805,6.029,13.2980,4.59976,2469.984,2020-8-18T15:24:41Z
2020-08-18T13:26:55Z,42.805,6.029,13.2972,4.59975,2469.984,2020-8-18T15:27:44Z
2020-08-18T13:29:58Z,42.805,6.029,13.2971,4.59975,2469.984,2020-8-18T15:30:47Z
2020-08-18T13:33:01Z,42.805,6.029,13.2975,4.59976,2469.947,2020-8-18T15:33:51Z
2020-08-18T13:36:05Z,42.805,6.029,13.2971,4.59976,2469.984,2020-8-18T15:36:54Z
2020-08-18T13:39:08Z,42.805,6.029,13.2973,4.59976,2469.947,2020-8-18T15:39:58Z
2020-08-18T13:42:11Z,42.805,6.029,13.2976,4.59976,2469.97,2020-8-18T15:43:01Z
2020-08-18T13:45:15Z,42.805,6.029,13.2974,4.59976,2469.97,2020-8-18T15:46:04Z
2020-08-18T13:48:18Z,42.805,6.029,13.2975,4.59976,2469.993,2020-8-18T15:49:07Z
2020-08-18T13:51:21Z,42.805,6.029,13.2977,4.59976,2469.993,2020-8-18T15:52:11Z
2020-08-18T13:54:25Z,42.805,6.029,13.2976,4.59976,2469.97,2020-8-18T15:55:14Z
2020-08-18T13:57:28Z,42.805,6.029,13.2975,4.59976,2469.97,2020-8-18T15:58:17Z
2020-08-18T14:00:31Z,42.805,6.029,13.2972,4.59976,2469.97,2020-8-18T16:01:20Z
2020-08-18T14:03:34Z,42.805,6.029,13.2977,4.59976,2469.97,2020-8-18T16:04:24Z
2020-08-18T14:06:38Z,42.805,6.029,13.2975,4.59976,2469.947,2020-8-18T16:07:27Z
2020-08-18T14:09:41Z,42.805,6.029,13.2973,4.59976,2470.007,2020-8-18T16:10:30Z
2020-08-18T14:12:44Z,42.805,6.029,13.2970,4.59978,2469.97,2020-8-18T16:13:34Z
2020-08-18T14:15:48Z,42.805,6.029,13.2976,4.59976,2469.97,2020-8-18T16:16:37Z
2020-08-18T14:18:51Z,42.805,6.029,13.2974,4.59975,2470.007,2020-8-18T16:19:41Z
2020-08-18T14:21:54Z,42.805,6.029,13.2978,4.59976,2469.993,2020-8-18T16:22:44Z
2020-08-18T14:24:58Z,42.805,6.029,13.2972,4.59975,2470.007,2020-8-18T16:25:47Z
2020-08-18T14:28:01Z,42.805,6.029,13.2975,4.59975,2469.97,2020-8-18T16:28:50Z
2020-08-18T14:31:04Z,42.805,6.029,13.2976,4.59975,2470.04,2020-8-18T16:31:54Z
2020-08-18T14:34:07Z,42.805,6.029,13.2977,4.59976,2470.007,2020-8-18T16:34:57Z
2020-08-18T14:37:11Z,42.805,6.029,13.2975,4.59976,2469.97,2020-8-18T16:38:00Z
2020-08-18T14:40:14Z,42.805,6.029,13.2975,4.59976,2470.007,2020-8-18T16:41:03Z
2020-08-18T14:43:17Z,42.805,6.029,13.2975,4.59978,2470.007,2020-8-18T16:44:07Z
2020-08-18T14:46:20Z,42.805,6.029,13.2976,4.59976,2469.993,2020-8-18T16:47:10Z
2020-08-18T14:49:24Z,42.805,6.029,13.2970,4.59976,2470.007,2020-8-18T16:50:13Z
2020-08-18T14:52:27Z,42.805,6.029,13.2971,4.59976,2470.017,2020-8-18T16:53:16Z
2020-08-18T14:55:30Z,42.805,6.029,13.2974,4.59977,2470.077,2020-8-18T16:56:20Z
2020-08-18T14:58:33Z,42.805,6.029,13.2971,4.59975,2470.017,2020-8-18T16:59:23Z
2020-08-18T15:01:37Z,42.805,6.029,13.2975,4.59978,2470.03,2020-8-18T17:02:26Z
2020-08-18T15:04:40Z,42.805,6.029,13.2976,4.59976,2469.993,2020-8-18T17:05:29Z
2020-08-18T15:07:43Z,42.805,6.029,13.2975,4.59977,2470.017,2020-8-18T17:08:33Z
2020-08-18T15:10:46Z,42.805,6.029,13.2979,4.59976,2470.053,2020-8-18T17:11:36Z
2020-08-18T15:13:50Z,42.805,6.029,13.2976,4.59977,2470.03,2020-8-18T17:14:39Z